User: anonymous   Login
Location: Unspecified
(0.0000°N, 0.0000°E)
Time: 07:43:55
(UTC+00:00)
Language:

STARLINK-30358 - Orbit

View from above orbital plane
View from above orbital plane
View from above satellite
View from above satellite

Ground track
Ground track

The orbit is defined by the following mean orbital elements,

1 57879U          26145.20944610 +.00000000 +00000-0 -60597-4 0 00005
2 57879  43.0015 212.7566 0001859 270.6223  89.4415 15.27565399    08
Epoch (UTC): 25 May 2026 05:01:36
Eccentricity: 0.0001859
inclination: 43.0015°
perigee height: 482 km
apogee height: 484 km
right ascension of ascending node: 212.7566°
argument of perigee: 270.6223°
revolutions per day: 15.27565399
mean anomaly at epoch: 89.4415°

The dashed part of the orbit path shows where the satellite is in the earth's shadow,  

DLR